Tracking 26933 objects as of 5-Feb-2023
HD Live streaming from Space Station
objects crossing your sky now

COSMOS 2133

Track COSMOS 2133 now!
COSMOS 2133 is classified as:


NORAD ID: 21111
Int'l Code: 1991-010A
Perigee: 35,766.7 km
Apogee: 35,822.3 km
Inclination: 14.1 °
Period: 1,436.1 minutes
Semi major axis: 42165 km
RCS: 12.1 m2 (large)
Launch date: February 14, 1991
Source: Commonwealth of Independent States (former USSR) (CIS)
Launch site: TYURATAM MISSILE AND SPACE COMPLEX (TTMTR)
Your satellite tracking list
Your tracking list is empty




NASA's NSSDC Master Catalog

Two Line Element Set (TLE):
1 21111U 91010A   23035.88191965 -.00000053  00000-0  00000-0 0  9996
2 21111  14.0630 351.6746 0006590 137.6483  32.7671  1.00269129117124
Source of the keplerian elements: AFSPC